This demonstration page uses our WeatherBlox Daily Observations layout. Learn more.

Left ArrowRight Arrow

Hourly Observations for January 11, 2022

Temp ( °F °C ) Dew Point ( °F °C ) Humidity (%) Winds ( mph kmh ) Pressure ( in mb ) Visibility ( mi km ) Precip ( " mm )
12:53 am 00:53 Mostly Clear 33 0.6 26 -3.3 75 75 Calm 30.57 1035 10 16 0.00 0.00
1:53 am 01:53 Mostly Clear 32 0 26 -3.3 79 79 Calm 30.56 1035 10 16 0.00 0.00
2:53 am 02:53 Mostly Clear 32 0 26 -3.3 79 79 Calm 30.57 1035 10 16 0.00 0.00
3:53 am 03:53 Mostly Clear 32 0 26 -3.3 79 79 Calm 30.57 1035 10 16 0.00 0.00
4:53 am 04:53 Mostly Clear 33 0.6 27 -2.8 78 78 Calm 30.56 1035 10 16 0.00 0.00
5:53 am 05:53 Clear 32 0 25 -3.9 75 75 Calm 30.55 1035 10 16 0.00 0.00
6:53 am 06:53 Clear 30 -1.1 24 -4.4 79 79 Calm 30.57 1035 10 16 0.00 0.00
7:53 am 07:53 Mostly Sunny 32 0 25 -3.9 75 75 Calm 30.58 1036 10 16 0.00 0.00
8:53 am 08:53 Mostly Sunny 40 4.4 29 -1.7 65 65 Calm 30.58 1036 9 14 0.00 0.00
9:53 am 09:53 Mostly Sunny 47 8.3 26 -3.3 44 44 VRB 3 6 30.58 1036 9 14 0.00 0.00
10:53 am 10:53 Mostly Sunny 50 10 22 -5.6 33 33 S 7 11 30.58 1035 10 16 0.00 0.00
11:53 am 11:53 Partly Cloudy 55 12.8 20 -6.7 25 25 S 9 15 30.55 1034 10 16 0.00 0.00
12:53 pm 12:53 Mostly Cloudy 56 13.3 20 -6.7 24 24 SW 7 11 30.50 1033 10 16 0.00 0.00
1:53 pm 13:53 Partly Cloudy 57 13.9 18 -7.8 22 22 SW 13 20 30.46 1032 10 16 0.00 0.00
2:53 pm 14:53 Mostly Cloudy 57 13.9 18 -7.8 22 22 SW 12 19 30.42 1030 10 16 0.00 0.00
3:53 pm 15:53 Mostly Cloudy 56 13.3 18 -7.8 22 22 SSW 9 15 30.42 1030 10 16 0.00 0.00
4:53 pm 16:53 Mostly Cloudy 54 12.2 19 -7.2 25 25 SSW 9 15 30.43 1030 10 16 0.00 0.00
5:53 pm 17:53 Mostly Cloudy 52 11.1 19 -7.2 27 27 SSW 9 15 30.42 1030 10 16 0.00 0.00
6:53 pm 18:53 Mostly Cloudy 52 11.1 19 -7.2 27 27 S 6 9 30.42 1030 10 16 0.00 0.00
7:53 pm 19:53 Mostly Cloudy 51 10.6 20 -6.7 29 29 S 6 9 30.42 1030 10 16 0.00 0.00
8:53 pm 20:53 Mostly Cloudy 50 10 21 -6.1 32 32 SSW 10 17 30.40 1030 10 16 0.00 0.00
9:53 pm 21:53 Mostly Cloudy 48 8.9 25 -3.9 41 41 SW 3 6 30.40 1029 10 16 0.00 0.00
10:53 pm 22:53 Mostly Cloudy 46 7.8 27 -2.8 47 47 SW 7 11 30.38 1029 10 16 0.00 0.00
11:53 pm 23:53 Mostly Cloudy 44 6.7 30 -1.1 58 58 SW 8 13 30.39 1029 10 16 0.00 0.00

Powered by AerisWeather